Location: Gu�tanj
(46.5431°N, 14.9692°E)
Time: 13:50:55
(UTC+00:00)

Cosmos 2333 - Pass Details

Date: 03 March 2021
Orbit: 829 x 866 km, 70.9° (Epoch: 14 April)

Event Time Altitude Azimuth Distance (km) Brightness Sun altitude
Rises 18:30:24 0° 194° (SSW) 3,371 7.4 -18.2°
Reaches altitude 10° 18:32:51 10° 191° (S) 2,446 6.6 -18.6°
Maximum altitude 18:38:22 62° 111° (ESE) 948 4.1 -19.5°
Drops below altitude 10° 18:43:59 10° 33° (NNE) 2,487 6.4 -20.5°
Sets 18:46:29 0° 30° (NNE) 3,433 7.2 -20.9°
